Regional Weather Roundup
Issued by NWS

Home | Current Version | Previous Version | Text Only | Print | Product List | Glossary Off
Versions: 1 2 3 4 5 6 7 8 9 10 11 12 13 14 15 16 17 18 19 20 21 22 23 24 25 26 27 28 29 30 31 32 33 34 35 36 37 38 39 40 41 42 43 44 45 46 47 48 49 50

000
ASUS43 KDMX 161806
RWRIA

WEATHER ROUNDUP FOR IOWA
NATIONAL WEATHER SERVICE DES MOINES IA
100 PM CDT MON OCT 16 2017

NOTE: "FAIR" INDICATES FEW OR NO CLOUDS BELOW 12,000 FEET WITH NO
SIGNIFICANT WEATHER AND/OR OBSTRUCTIONS TO VISIBILITY.

* - THESE STATIONS ARE NOT NWS STATIONS...THUS NOT UNDER NWS
QUALITY CONTROL.  THEY ALSO DO NOT REPORT WEATHER SUCH
AS PRECIPITATION OR FOG.

IAZ001>003-012>014-020>022-031>034-043>046-161900-
   NORTHWEST IOWA

CITY           SKY/WX    TMP DP  RH WIND       PRES   REMARKS
CARROLL *      SUNNY     70  39  32 S18       30.24F
CHEROKEE *     SUNNY     65  36  33 S15G22    30.20F
DENISON *      SUNNY     66  36  32 SW14G22   30.25F
LE MARS *      SUNNY     66  37  34 S14G20    30.18F
ORANGE CITY *  SUNNY     66  39  37 SW16G22   30.18F
SHELDON *      SUNNY     66  32  28 SW15G21   30.16F
SIOUX CITY     SUNNY     69  38  32 S15G21    30.20F
6HR MIN TEMP:  32; 6HR MAX TEMP:  69;

SPENCER        SUNNY     65  33  30 SW15G24   30.20F
6HR MIN TEMP:  30; 6HR MAX TEMP:  65;

STORM LAKE *   SUNNY     66  32  28 S17G23    30.21F
$$

IAZ055>058-069>071-079>083-090>094-161900-
   SOUTHWEST IOWA

CITY           SKY/WX    TMP DP  RH WIND       PRES   REMARKS
ATLANTIC *     SUNNY     66  37  34 S16       30.27F
AUDUBON *      SUNNY     66  34  30 S14       30.27F
CLARINDA *     SUNNY     68  36  30 S15       30.32F
COUNCIL BLFS * SUNNY     66  39  37 S13G22    30.26F
CRESTON *      SUNNY     66  36  32 SW14G21   30.32F
HARLAN  *      SUNNY     66  36  32 SW17      30.29F
LAMONI         SUNNY     64  36  35 S12       30.33F HAZE
6HR MIN TEMP:  41; 6HR MAX TEMP:  64;

RED OAK *      SUNNY     68  36  30 S16       30.29F
SHENANDOAH *   SUNNY     70  37  30 S14G24    30.30F
$$

IAZ047>049-059>061-072>074-084-161900-
   CENTRAL IOWA

CITY           SKY/WX    TMP DP  RH WIND       PRES   REMARKS
AMES           SUNNY     65  37  35 SW10      30.28F
6HR MIN TEMP:  32; 6HR MAX TEMP:  65;

ANKENY *       SUNNY     64  37  36 SW12      30.30F
BOONE *        SUNNY     64  36  34 W13G22    30.27F
CHARITON *     SUNNY     64  36  34 W9        30.32F
DES MOINES     SUNNY     66  37  34 W9G20     30.29F
6HR MIN TEMP:  39; 6HR MAX TEMP:  66;

GRINNELL*      SUNNY     63  34  34 SW5       30.32F
KNOXVILLE *    SUNNY     64  36  34 SW12      30.30F
MARSHALLTOWN   SUNNY     64  35  34 W13G18    30.28F
6HR MIN TEMP:  33; 6HR MAX TEMP:  64;

NEWTON *       SUNNY     64  34  32 W8G16     30.30F
PELLA *        SUNNY     64  36  34 W6        30.32F
PERRY *          N/A     67  31  25 SW8G18    30.28F
$$

IAZ004>006-015-016-023>025-035-036-161900-
   NORTH CENTRAL IOWA

CITY           SKY/WX    TMP DP  RH WIND       PRES   REMARKS
ALGONA *       SUNNY     64  36  34 SW15G24   30.23F
CLARION *      SUNNY     64  34  32 SW15G23   30.25F
ESTHERVILLE    SUNNY     62  34  35 SW16      30.20F
6HR MIN TEMP:  32; 6HR MAX TEMP:  62;

FORT DODGE *   SUNNY     64  37  36 SW15      30.25F
MASON CITY     SUNNY     62  34  35 SW10      30.25F
6HR MIN TEMP:  31; 6HR MAX TEMP:  62;

FOREST CITY *    N/A     63  34  34 SW14      30.24F
WEBSTER CITY * SUNNY     64  34  32 SW12G20   30.24F
IOWA FALLS *     N/A     64  36  35 SW12      30.29F
$$

IAZ007>011-017>019-026>030-037>042-050>054-066-161900-
   NORTHEAST IOWA

CITY           SKY/WX    TMP DP  RH WIND       PRES   REMARKS
CEDAR RAPIDS   SUNNY     63  33  32 W10       30.29F
6HR MIN TEMP:  33; 6HR MAX TEMP:  63;

CHARLES CITY * SUNNY     63  34  34 VRB7G14   30.26F
CLINTON *      SUNNY     62  37  39 NW10      30.31F
DECORAH *      SUNNY     59  32  36 SW9G16    30.25F
DUBUQUE        SUNNY     59  37  44 W10       30.29F
6HR MIN TEMP:  33; 6HR MAX TEMP:  59;

MONTICELLO *   SUNNY     61  36  39 SW12      30.28F
OELWEIN *      SUNNY     61  34  36 W12G20    30.28F
WATERLOO       SUNNY     63  33  32 W13       30.27F
6HR MIN TEMP:  32; 6HR MAX TEMP:  63;

$$

IAZ064-065-067-068-078-161900-
   EAST CENTRAL IOWA

CITY           SKY/WX    TMP DP  RH WIND       PRES   REMARKS
DAVENPORT      SUNNY     62  37  39 W8        30.33F
6HR MIN TEMP:  37; 6HR MAX TEMP:  62;

IOWA CITY      SUNNY     64  37  36 W10       30.32F
6HR MIN TEMP:  36; 6HR MAX TEMP:  64;

MUSCATINE *    SUNNY     63  39  42 W9        30.32F
QUAD CITIES    SUNNY     63  38  39 NW8       30.31F
6HR MIN TEMP:  38; 6HR MAX TEMP:  63;

$$

IAZ062-063-075>077-085>089-095>099-161900-
   SOUTHEAST IOWA

CITY           SKY/WX    TMP DP  RH WIND       PRES   REMARKS
BURLINGTON     SUNNY     63  40  42 SW6       30.32F
6HR MIN TEMP:  39; 6HR MAX TEMP:  63;

FAIRFIELD *    SUNNY     63  36  36 W13       30.32F
FORT MADISON * SUNNY     63  43  48 S6        30.34F
KEOKUK *       SUNNY     63  39  42 SW8G14    30.33F
OSKALOOSA *      N/A     64  35  32 W14       30.32F
OTTUMWA        SUNNY     64  39  39 W9        30.32F
6HR MIN TEMP:  37; 6HR MAX TEMP:  64;

WASHINGTON *   SUNNY     64  37  36 W9G16     30.33S
$$

ABBREVIATIONS USED IN REMARKS
   TC - TEMPERATURES IN CELSIUS
  WCI - WIND CHILL INDEX
   HX - HEAT INDEX
  VSB - VISIBILITY
$$




USA.gov is the U.S. government's official web portal to all federal, state and local government web resources and services.